Regional Weather Roundup
Issued by NWS

Current Version | Previous Version | Text Only | Print | Product List | Glossary On
Versions: 1 2 3 4 5 6 7 8 9 10 11 12 13 14 15 16 17 18 19 20 21 22 23 24 25 26 27 28 29 30 31 32 33 34 35 36 37 38 39 40 41 42 43 44 45 46 47 48 49 50
000
ASUS46 KLOX 040813
RWRCA

SOUTHERN CALIFORNIA WEATHER ROUNDUP
NATIONAL WEATHER SERVICE OXNARD CALIFORNIA
100 AM PDT FRI SEP 04 2015

NOTE: "FAIR" INDICATES FEW OR NO CLOUDS BELOW 12,000 FEET WITH NO
SIGNIFICANT WEATHER AND/OR OBSTRUCTIONS TO VISIBILITY.

  -  STATIONS PRECEEDED BY AN ASTERISK (*) ARE NOT NWS OR FAA
     STATIONS AND ARE NOT SUBJECT TO NWS AND FAA QUALITY CONTROL.

CAZ041-042-087-040900-
LA AND ORANGE COUNTY COASTAL AREAS


CITY           SKY/WX    TMP DP  RH WIND       PRES   REMARKS
L.A. DOWNTOWN  CLEAR     67  56  67 CALM      29.86S
L.A. AIRPORT   CLOUDY    68  57  68 CALM      29.86F
LONG BEACH     NOT AVBL

CITY           SKY/WX    TMP DP  RH WIND       PRES   REMARKS
AVALON           N/A     66 N/A N/A SW1         N/A
FULLERTON      CLEAR     68  59  73 SE3       29.86S
HAWTHORNE      MOCLDY    70  57  63 CALM      29.86F
*LEO CARRILLO    N/A     64  57  78 N6          N/A
*LOS ALAMITOS  FAIR      66  60  79 E3        29.86S
*REDONDO BEACH   N/A     63  56  79 CALM      29.86F
SANTA ANA      CLOUDY    68  59  73 SE7       29.86S
STA MONICA APT PTCLDY    67  58  72 CALM      29.86F
*UCLA            N/A     63  55  77 CALM      29.84S

$$

CAZ547-548-048-040900-
LA COUNTY VALLEYS AND INLAND EMPIRE


CITY           SKY/WX    TMP DP  RH WIND       PRES   REMARKS
BURBANK        CLOUDY    67  56  67 SW6       29.86F
VAN NUYS       CLOUDY    65  57  75 CALM      29.87F

CITY           SKY/WX    TMP DP  RH WIND       PRES   REMARKS
CORONA AIRPORT SUNNY     57  53  86 CALM      29.88S
*CHATSWORTH      N/A     65  56  74 CALM      29.86F
CHINO          CLEAR     63  57  81 SW3       29.88S
MARCH AFB      CLEAR     62  56  82 SE5       29.89S
*NORTHRIDGE      N/A     64  55  72 CALM        N/A
ONTARIO        CLEAR     63  56  78 SW5       29.88R
*PASADENA        N/A     64  59  82 CALM        N/A
RIVERSIDE      CLEAR     64  57  78 W3        29.87F
SAN BERNARDINO NOT AVBL
*SAN GABRIEL     N/A     67  59  76 S3        29.93S
*SAN RAFAEL HI   N/A     60  56  85 S2          N/A
*SAUGUS          N/A     63  58  83 S10         N/A
*WHITEMAN AP   NOT AVBL
*WHITTIER HILL   N/A     60  60 100 E5          N/A
*WOODLAND HILL   N/A     64  55  72 E1          N/A

$$

CAZ054-055-040900-
LA AND SAN BERNARDINO COUNTY MOUNTAINS


CITY           SKY/WX    TMP DP  RH WIND       PRES   REMARKS
*BIG BEAR AIRP SUNNY     55  34  44 W9        30.07F
*CHILAO          N/A     57  23  27 SE21        N/A
SANDBERG       CLEAR     56  44  64 S9        29.99R
*WARM SPRINGS    N/A     53  50  90 W10         N/A

$$

CAZ028-029-059-060-099-040900-
ANTELOPE VALLEY AND SURROUNDING AREAS


CITY           SKY/WX    TMP DP  RH WIND       PRES   REMARKS
LANCASTER      CLEAR     63  46  54 W13       29.87S
PALMDALE       CLEAR     62  49  62 NW10      29.87R
*POPPY PARK      N/A     62  43  49 NW8         N/A

CITY           SKY/WX    TMP DP  RH WIND       PRES   REMARKS
29 PALMS       CLEAR     78  42  27 SW14      29.86R
BARSTOW/DAGGET CLEAR     72  41  32 W16       29.80S
BISHOP         CLEAR     68  28  22 SW9       29.83R
CHINA LAKE     CLEAR     70  43  37 S13       29.78S
EDWARDS AFB    CLEAR     67  32  27 SW10      29.83S
MOJAVE         CLEAR     68  48  49 SW9       29.87R
NEEDLES        CLEAR     90  47  22 S17G25    29.75R
VICTORVILLE    CLEAR     64  45  48 S17       29.88S

$$

CAZ039-040-040900-
VENTURA AND SANTA BARBARA COUNTY COAST


CITY           SKY/WX    TMP DP  RH WIND       PRES   REMARKS
CAMARILLO      PTCLDY    65  56  72 NE3       29.85S
NWS OXNARD       N/A     63  56  77 CALM      29.85S
OXNARD AIRPORT CLEAR     65  57  75 NE6       29.85S
*POINT MUGU    CLOUDY    65  58  78 CALM      29.86S
SBA APT/GOLETA CLEAR     65  51  60 E5        29.84R
*SANTA BARBARA   N/A     67  55  63 CALM      29.92R
*VENTURA         N/A     64  56  77 CALM      29.47S

$$

CAZ044-045-040900-
VENTURA COUNTY VALLEYS


CITY           SKY/WX    TMP DP  RH WIND       PRES   REMARKS
*SIMI VALLEY     N/A     63  57  81 CALM      29.82S
*OJAI            N/A     56  53  88 CALM      29.81S
*FILLMORE        N/A     59  54  82 W2        29.77S

$$

CAZ053-040900-
VENTURA COUNTY MOUNTAINS


CITY           SKY/WX    TMP DP  RH WIND       PRES   REMARKS
*LOCKWOOD VLY    N/A     43  36  75 CALM        N/A
*ROSE VALLEY     N/A     45  43  93 MISG        N/A

$$

CAZ034-035-036-040900-
CENTRAL COAST AND SANTA YNEZ VALLEY


CITY           SKY/WX    TMP DP  RH WIND       PRES   REMARKS
SAN LUIS OBISP PTCLDY    60  53  77 MISG      29.89S
SANTA MARIA    CLOUDY    58  55  90 W6        29.90S

CITY           SKY/WX    TMP DP  RH WIND       PRES   REMARKS
*CAL POLY SLO    N/A     59  55  88 CALM        N/A
*LOMPOC        MOCLDY    57  48  72 CALM      29.91S
*PISMO BEACH     N/A     58  54  86 CALM      29.90R
*SANTA YNEZ    FAIR      55  50  82 CALM      29.90S

$$

CAZ037-038-051-040900-
SAN LUIS OBISPO COUNTY INTERIOR AND CUYAMA VALLEY


CITY           SKY/WX    TMP DP  RH WIND       PRES   REMARKS
*CUYAMA          N/A     58  46  66 W2        29.81R
PASO ROBLES    CLEAR     57  49  74 W6        29.88R

$$

CAZ032-033-061-040900-
SOUTHERN DESERTS


CITY           SKY/WX    TMP DP  RH WIND       PRES   REMARKS
BLYTHE         CLEAR     86  66  51 S14       29.74S
IMPERIAL       CLEAR     88  75  65 SE10      29.69S HX  97
PALM SPRINGS   CLEAR     81  51  35 N7        29.74R
THERMAL        CLEAR     81  47  30 N7        29.68F

$$

ELSEWHERE ACROSS THE WESTERN UNITED STATES AND MEXICO


CITY           SKY/WX    TMP DP  RH WIND       PRES   REMARKS
DENVER, CO     PTCLDY    57  52  83 S6        29.98F
GRAND CANYON,  NOT AVBL
HONOLULU, HI   MOCLDY    79  72  78 CALM      29.90R
KAHULUI, MAUI  PTCLDY    81  73  78 CALM      29.90R
LAKE TAHOE, CA PTCLDY    44  36  73 S3        29.99S
LAS VEGAS, NV  CLEAR     84  34  16 SE7       29.73R
MAMMOTH LAKES, FAIR      39  30  70 CALM      30.02S
MEXICO CITY, M MOCLDY    57  55  94 CALM      30.28S
PHOENIX, AZ    PTCLDY    79  65  62 CALM      29.83S
PORTLAND, OR   PTCLDY    54  52  93 W5        29.99S
RENO, NV       CLOUDY    62  40  44 NW10      29.90R
SALT LAKE CITY PTCLDY    76  35  22 S18       29.80R
SAN DIEGO, CA  MOCLDY    70  58  65 SW3       29.88F
SAN FRANCISCO, PTCLDY    59  51  75 W7        29.85S
SAN JOSE, CA   CLEAR     56  47  71 SE5       29.85S
SEATTLE, WA    PTCLDY    52  47  83 NW3       30.00S
TIJUANA, MEX   CLOUDY    66  55  68 CALM      29.90S

$$

STATION/POSITION TIME  TEMP    WIND        PRES    VSBY  WAVE
                       AIR SEA DIR/SP/G                  HT/PER
                 (UTC) (F)     (DEG/KT/KT) (MB)    (MI)  (FT/S)
POINT ARGUELLO B NOT AVBL
WEST SANTA BARBA 0750   63 66  330/ 21/ 23 1010.5R         7/10
POINT CONCEPTION NOT AVBL
EAST SANTA BARBA 0700   69 71  260/  6/  8 1010.8R
SANTA MONICA BAY 0750   68 69  360/  4/  4 1010.8F         3/11



USA.gov is the U.S. government's official web portal to all federal, state and local government web resources and services.